CW5624 Weather Reports


time (UTC)temp
C
wind
direction
speed
KPH
gust
KPH
rain 1hr
cm
rain 24hr
cm
rain mn
cm
humidity
%
barometer
mb
20260507075906 10 13 0.0 3.2 0.00 0.00 0.03 23 1007.3
20260507074906 11 13 0.0 3.2 0.00 0.00 0.03 32 1006.8
20260507073906 11 9 0.0 4.8 0.00 0.00 0.03 36 1006.7
20260507072906 11 355 0.0 4.8 0.00 0.00 0.00 36 1006.7
20260507071906 12 355 0.0 3.2 0.00 0.00 0.00 31 1006.1
20260507070906 12 355 0.0 9.7 0.00 0.00 0.00 30 1005.9
20260507065907 12 5 0.0 3.2 0.00 0.00 0.00 25 1006.0
20260507064906 12 9 0.0 3.2 0.00 0.00 0.00 21 1005.9
20260507063906 12 9 0.0 4.8 0.00 0.00 0.00 16 1006.0
20260507062906 12 5 0.0 3.2 0.00 0.00 0.00 12 1006.3
20260507061906 12 5 0.0 6.4 0.00 0.00 0.00 13 1006.0
20260507060906 12 355 0.0 4.8 0.00 0.00 0.00 13 1005.8
20260507055906 12 331 1.6 6.4 0.00 0.00 0.00 13 1006.0
20260507054906 12 9 1.6 3.2 0.00 0.00 0.00 5 1006.1
20260507053906 12 5 0.0 3.2 0.00 0.00 0.00 100 1006.3
20260507052906 12 360 0.0 8.0 0.00 0.00 0.00 100 1006.4
20260507051907 12 355 0.0 4.8 0.00 0.00 0.00 100 1006.4
20260507050906 12 350 0.0 6.4 0.00 0.00 0.00 100 1006.0
20260507045906 12 5 0.0 6.4 0.00 0.00 0.00 100 1006.1
20260507044906 12 5 0.0 9.7 0.00 0.00 0.00 100 1006.2
20260507043906 12 38 0.0 4.8 0.00 0.00 0.00 100 1006.2
20260507042906 12 173 0.0 3.2 0.00 0.00 0.00 100 1006.0
20260507041907 12 176 0.0 6.4 0.00 0.00 0.00 100 1006.0
20260507040906 12 87 0.0 0.0 0.00 0.00 0.00 100 1006.1
20260507035906 12 88 0.0 3.2 0.00 0.00 0.18 100 1006.3
20260507034906 12 115 0.0 0.0 0.00 0.00 0.18 100 1006.4
20260507033906 12 115 0.0 1.6 0.00 0.00 0.18 100 1006.1
20260507032906 12 115 0.0 3.2 0.00 0.00 0.18 100 1005.9
20260507031906 12 120 0.0 6.4 0.00 0.00 0.18 100 1005.8
20260507030906 12 342 0.0 3.2 0.00 0.00 0.18 100 1005.7
20260507025907 12 338 0.0 3.2 0.00 0.00 0.18 100 1005.5
20260507024906 12 80 0.0 3.2 0.00 0.00 0.18 100 1005.5
20260507023907 12 75 0.0 4.8 0.00 0.00 0.18 100 1005.7
20260507022908 12 86 0.0 4.8 0.00 0.00 0.18 100 1005.8
20260507021906 12 113 0.0 4.8 0.00 0.00 0.18 100 1005.6
20260507020908 12 130 0.0 3.2 0.00 0.00 0.18 100 1005.6
20260507015906 12 130 0.0 1.6 0.00 0.00 0.18 100 1005.7
20260507014906 12 130 0.0 1.6 0.00 0.00 0.18 100 1005.5
20260507013906 12 128 0.0 4.8 0.00 0.00 0.18 100 1005.7
20260507012906 12 134 0.0 3.2 0.00 0.00 0.18 100 1005.8
20260507011906 12 136 0.0 4.8 0.00 0.00 0.18 100 1005.9
20260507010907 12 126 1.6 8.0 0.00 0.00 0.18 100 1006.1
20260507005906 12 26 1.6 1.6 0.00 0.00 0.18 100 1006.2
20260507004907 12 22 0.0 3.2 0.00 0.00 0.18 100 1006.2
20260507003907 12 23 0.0 3.2 0.00 0.00 0.18 100 1006.2
20260507002907 12 24 1.6 3.2 0.00 0.00 0.18 100 1006.0
20260507001907 12 242 3.2 8.0 0.00 0.00 0.18 100 1006.0
20260507000907 12 122 0.0 8.0 0.00 0.00 0.18 100 1005.9
20260506235907 12 209 0.0 4.8 0.00 0.00 0.18 100 1005.6
20260506234907 12 24 0.0 8.0 0.00 0.00 0.18 100 1005.7
20260506233907 12 184 0.0 6.4 0.00 0.00 0.15 100 1005.7
20260506232908 13 127 0.0 3.2 0.00 0.00 0.15 100 1005.6
20260506231906 13 53 0.0 4.8 0.00 0.00 0.15 100 1005.6
20260506230907 13 115 0.0 4.8 0.00 0.00 0.13 100 1005.7
20260506225907 13 175 0.0 6.4 0.00 0.00 0.10 100 1005.6
20260506224907 13 205 1.6 4.8 0.00 0.00 0.10 100 1005.6
20260506223907 13 129 1.6 3.2 0.00 0.00 0.10 100 1005.8
20260506222907 13 42 0.0 4.8 0.00 0.00 0.10 100 1005.8
20260506221907 13 28 0.0 6.4 0.00 0.00 0.10 100 1006.1
20260506220907 13 127 0.0 4.8 0.00 0.00 0.10 100 1006.0
20260506215907 14 81 3.2 8.0 0.00 0.00 0.10 100 1006.1
20260506214907 14 222 0.0 9.7 0.00 0.00 0.10 100 1006.1
20260506213907 15 150 0.0 6.4 0.00 0.00 0.10 100 1006.3
20260506212907 15 148 3.2 6.4 0.00 0.00 0.08 100 1006.4
20260506211907 15 51 8.0 8.0 0.00 0.00 0.05 100 1006.3
20260506210907 15 26 0.0 6.4 0.00 0.00 0.05 100 1006.4
20260506205907 15 202 0.0 6.4 0.00 0.00 0.05 100 1006.5
20260506204907 15 99 0.0 4.8 0.00 0.00 0.05 100 1006.6
20260506203907 15 360 1.6 6.4 0.00 0.00 0.05 3 1006.7
20260506202907 15 49 0.0 9.7 0.00 0.00 0.05 7 1006.6
20260506201907 16 30 1.6 12.9 0.00 0.00 0.05 8 1006.7
20260506200907 16 329 3.2 6.4 0.00 0.00 0.05 13 1006.6
20260506195907 16 220 0.0 6.4 0.00 0.00 0.05 21 1006.5
20260506194907 17 195 0.0 9.7 0.00 0.00 0.05 27 1006.4
20260506193907 17 116 0.0 8.0 0.00 0.00 0.03 38 1006.7
20260506192907 18 169 0.0 9.7 0.00 0.00 0.00 46 1006.9
20260506191907 18 92 0.0 8.0 0.00 0.00 0.00 54 1006.8
20260506190907 20 126 0.0 6.4 0.00 0.00 0.00 62 1006.7
20260506185908 20 159 0.0 4.8 0.00 0.00 0.00 65 1006.6
20260506184908 20 214 1.6 8.0 0.00 0.00 0.00 65 1006.7
20260506183907 20 205 0.0 8.0 0.00 0.00 0.00 65 1006.7
20260506182907 21 267 3.2 11.3 0.00 0.00 0.00 64 1006.8
20260506181907 21 22 1.6 12.9 0.00 0.00 0.00 63 1006.9
20260506180907 22 178 8.0 11.3 0.00 0.00 0.00 61 1006.9
20260506175907 22 186 3.2 9.7 0.00 0.00 0.00 60 1007.0
20260506174907 22 39 1.6 8.0 0.00 0.00 0.00 60 1007.0
20260506173907 22 223 3.2 14.5 0.00 0.00 0.00 60 1007.3
20260506172907 22 153 4.8 14.5 0.00 0.00 0.00 61 1007.3
20260506171907 22 69 1.6 19.3 0.00 0.00 0.00 60 1007.3
20260506170907 22 260 3.2 12.9 0.00 0.00 0.00 62 1007.2
20260506165907 21 175 6.4 16.1 0.00 0.00 0.00 64 1007.4
20260506164907 22 276 0.0 11.3 0.00 0.00 0.00 63 1007.6
20260506163908 22 256 1.6 11.3 0.00 0.00 0.00 62 1007.7
20260506162907 22 107 0.0 11.3 0.00 0.00 0.00 63 1007.7
20260506161907 22 282 3.2 11.3 0.00 0.00 0.00 62 1007.9
20260506160907 22 248 8.0 9.7 0.00 0.00 0.00 63 1008.2
20260506155907 22 208 4.8 11.3 0.00 0.00 0.00 63 1008.4
20260506154908 22 269 1.6 17.7 0.00 0.00 0.00 62 1008.6
20260506153908 22 200 0.0 12.9 0.00 0.00 0.00 62 1008.7
20260506152908 22 305 3.2 6.4 0.00 0.00 0.00 61 1008.8
20260506151908 22 5 0.0 8.0 0.00 0.00 0.00 62 1008.8
20260506150907 22 46 4.8 11.3 0.00 0.00 0.00 63 1008.8
20260506145908 22 188 1.6 8.0 0.00 0.00 0.00 63 1009.0
20260506144907 21 49 4.8 8.0 0.00 0.00 0.00 64 1008.8
20260506143908 21 57 1.6 8.0 0.00 0.00 0.00 64 1008.9
20260506142907 21 26 0.0 14.5 0.00 0.00 0.00 64 1008.9
20260506141910 21 217 0.0 11.3 0.00 0.00 0.00 64 1008.7
20260506140907 21 11 3.2 9.7 0.00 0.00 0.00 65 1008.7
20260506135908 20 174 3.2 6.4 0.00 0.00 0.00 65 1008.9
20260506134908 20 78 0.0 8.0 0.00 0.00 0.00 64 1008.9
20260506133908 19 331 3.2 6.4 0.00 0.00 0.00 63 1009.1
20260506132908 18 85 0.0 8.0 0.00 0.00 0.00 62 1009.6
20260506131908 18 31 3.2 8.0 0.00 0.00 0.00 61 1009.5
20260506130908 18 178 0.0 11.3 0.00 0.00 0.00 59 1009.5
20260506125909 18 167 0.0 8.0 0.00 0.00 0.00 59 1009.5
20260506124908 18 230 0.0 8.0 0.00 0.00 0.00 54 1009.6
20260506123908 17 117 3.2 6.4 0.00 0.00 0.00 54 1009.6
20260506122908 17 15 0.0 9.7 0.00 0.00 0.00 50 1009.8
20260506121908 17 202 0.0 6.4 0.00 0.00 0.00 49 1009.7
20260506120907 16 22 1.6 11.3 0.00 0.00 0.00 44 1009.6
20260506115908 16 213 3.2 6.4 0.00 0.00 0.00 40 1009.9
20260506114908 16 204 0.0 11.3 0.00 0.00 0.00 39 1010.0
20260506113908 16 22 0.0 8.0 0.00 0.00 0.00 39 1010.2
20260506112908 16 138 3.2 6.4 0.00 0.00 0.00 37 1010.3
20260506111908 15 36 3.2 8.0 0.00 0.00 0.00 37 1010.0
20260506110908 15 41 0.0 4.8 0.00 0.00 0.00 35 1010.0
20260506105908 15 200 4.8 12.9 0.00 0.00 0.00 34 1009.9
20260506104908 15 153 0.0 3.2 0.00 0.00 0.00 34 1009.9
20260506103908 15 74 0.0 11.3 0.00 0.00 0.00 34 1010.0
20260506102908 15 196 0.0 4.8 0.00 0.00 0.00 34 1010.1
20260506101908 15 33 0.0 3.2 0.00 0.00 0.00 34 1010.0
20260506100908 15 33 0.0 6.4 0.00 0.00 0.00 33 1009.9
20260506095908 15 82 0.0 4.8 0.00 0.00 0.00 33 1010.0
20260506094908 15 153 1.6 4.8 0.00 0.00 0.00 34 1009.7
20260506093908 15 213 0.0 3.2 0.00 0.00 0.00 35 1009.7
20260506092908 15 82 0.0 3.2 0.00 0.00 0.00 37 1009.9
20260506091908 15 53 0.0 3.2 0.00 0.00 0.00 39 1009.8
20260506090908 15 179 0.0 4.8 0.00 0.00 0.00 41 1009.8
20260506085908 15 168 0.0 4.8 0.00 0.00 0.00 44 1009.8
20260506084908 15 179 0.0 6.4 0.00 0.00 0.00 44 1009.9
20260506083908 15 40 0.0 4.8 0.00 0.00 0.00 46 1009.8
20260506082908 16 158 0.0 3.2 0.00 0.00 0.00 48 1009.9
20260506081908 16 224 0.0 1.6 0.00 0.00 0.00 50 1009.8
20260506080908 16 28 0.0 8.0 0.00 0.00 0.00 52 1009.7